Wind_Speed
40 40 40 40 40 39 38 37 37 37 36 35 34 33 33 32 30 27 25 25 26 26 24 22 22 22 21 18 16 17 20 21 20 14 9 10 13 13 11 9 9 9 10 10 10 9 6 4 6 9 13 17 22 27 33 40 45 49 51 53 55 56 56 57 58 58 58 58 58 58 58 56 53 50 49 46 42 39 38 40 42 42 40 39 37
44 44 44 43 41 40 40 40 40 40 39 38 37 34 34 34 32 29 27 26 26 26 24 23 23 22 23 22 18 16 18 20 23 21 15 11 12 14 13 10 7 7 7 7 7 8 7 5 3 4 8 11 14 17 21 25 31 36 41 44 47 50 51 52 54 56 56 56 56 57 56 54 51 47 44 39 35 34 33 33 35 37 38 38 36
46 46 45 42 40 40 42 43 43 42 41 40 39 36 36 36 33 31 29 27 25 23 21 22 25 24 24 24 22 18 17 19 23 25 24 19 14 13 14 11 8 8 8 9 8 7 6 6 5 4 5 7 9 12 14 17 20 24 28 32 36 38 40 43 45 47 48 50 50 50 49 48 45 43 38 33 31 34 33 29 29 31 34 38 38
47 46 44 42 42 43 44 46 45 43 42 42 41 39 39 38 36 34 32 29 25 24 23 23 26 26 25 25 24 21 19 19 21 24 26 25 22 17 14 11 8 8 9 10 10 9 9 8 8 8 8 7 7 9 11 13 16 19 22 24 27 29 31 34 37 39 40 41 41 41 40 40 39 38 36 33 31 34 34 32 31 29 31 37 41
45 44 42 42 45 47 48 48 46 42 43 42 40 41 41 39 38 37 35 32 28 27 27 25 24 25 26 25 25 24 22 21 22 23 24 26 25 22 18 15 12 10 10 11 12 11 11 11 11 12 11 11 11 11 11 12 13 15 17 19 22 24 26 29 32 34 35 36 35 35 34 35 35 35 35 36 36 36 35 35 35 33 32 36 40
37 40 41 43 47 50 48 45 42 42 45 43 37 38 39 37 38 39 38 36 32 30 31 31 28 25 24 24 25 26 26 24 23 23 24 25 25 23 21 21 20 17 15 17 18 16 14 12 11 13 14 15 15 14 14 14 14 14 15 16 18 20 22 25 28 31 32 33 33 33 33 34 36 35 33 35 38 37 34 34 37 37 36 36 39
35 39 44 45 47 47 41 40 43 46 49 47 40 36 37 35 36 39 40 39 37 35 35 36 34 30 27 26 26 27 27 26 25 23 23 24 24 22 22 22 23 22 20 21 22 21 20 17 13 12 15 18 19 18 18 17 16 16 15 15 15 16 18 20 22 24 27 29 30 31 32 34 36 36 35 35 37 37 36 36 38 39 39 41 42
42 46 51 52 52 49 43 41 43 46 49 50 46 42 41 40 40 41 41 39 40 40 41 41 39 35 31 30 29 28 27 26 26 25 23 23 22 22 23 22 22 23 24 23 22 23 25 23 17 13 16 20 22 21 20 18 18 18 18 17 16 16 17 18 19 19 21 23 25 26 27 30 32 34 35 35 37 37 38 39 41 41 41 43 43
52 56 59 58 57 56 52 47 44 44 48 51 49 47 46 45 47 50 48 43 42 43 42 42 42 38 35 33 32 31 29 27 26 24 23 23 24 24 25 23 21 23 24 25 24 23 24 24 21 19 20 23 25 25 24 23 21 19 18 18 19 19 19 19 19 19 19 21 23 23 23 25 27 28 30 33 35 37 39 40 42 43 43 44 43
59 61 61 59 58 57 55 53 50 48 49 49 49 50 49 48 50 52 52 49 45 44 42 42 44 42 39 36 34 33 32 29 27 26 26 26 26 27 27 25 23 23 24 24 23 23 22 23 25 25 25 26 28 29 28 28 28 26 22 20 21 22 22 21 21 20 20 21 21 21 22 24 25 26 29 30 32 36 39 41 43 44 45 47 47
61 61 60 59 59 58 56 55 54 52 51 51 51 50 49 50 51 50 51 49 46 44 44 45 46 45 42 40 37 34 33 31 30 29 29 29 29 29 28 27 26 26 26 25 24 24 26 28 30 30 29 30 32 32 32 33 35 35 31 26 23 24 25 25 24 23 23 23 23 22 22 23 24 25 27 29 30 34 38 41 42 42 42 44 46
61 60 60 59 60 60 59 58 57 55 53 52 53 52 51 52 52 51 50 50 47 46 45 44 45 45 43 42 41 39 37 36 34 33 32 32 33 32 31 29 28 28 29 30 28 28 30 33 34 33 33 34 34 34 35 38 40 40 38 34 29 28 28 28 27 26 26 26 26 25 23 22 23 24 26 29 34 38 40 41 42 44 44 44 44
60 60 60 59 59 60 59 59 59 55 52 52 53 54 53 53 53 52 51 50 49 46 44 42 42 43 43 42 43 42 38 34 35 37 38 36 36 36 34 33 31 31 31 32 32 31 33 36 37 38 38 37 36 37 39 40 40 40 40 39 36 33 31 30 29 29 29 30 31 29 25 24 26 27 27 33 40 42 42 41 41 43 46 46 47
58 59 59 58 57 58 57 57 57 55 52 53 54 54 55 55 53 52 51 50 49 46 43 42 41 42 43 44 44 42 35 29 31 37 40 40 40 39 38 38 36 35 33 33 35 36 37 40 40 40 41 40 39 40 41 40 40 39 38 38 37 36 35 35 35 33 32 33 34 33 30 28 30 31 32 38 43 42 43 43 40 41 44 46 47
55 56 57 56 55 55 55 54 54 54 53 54 54 55 56 55 53 52 51 50 48 45 43 43 43 42 44 45 45 42 38 33 33 37 41 42 41 39 39 39 40 40 38 37 38 40 41 43 44 44 44 44 44 44 43 42 41 40 37 36 37 40 41 40 39 37 36 36 36 35 34 32 33 34 34 39 43 42 45 48 46 45 47 49 50
51 52 53 53 53 53 53 52 52 53 53 53 54 54 54 53 51 49 48 48 46 44 44 44 44 43 43 44 44 44 41 39 38 38 39 40 41 39 39 39 40 41 42 41 42 42 43 43 45 45 45 46 46 45 45 44 43 42 41 42 45 48 47 44 42 41 41 40 39 40 40 39 38 37 37 40 44 44 46 51 51 51 52 54 54
49 50 50 51 52 52 52 52 51 51 51 51 51 51 51 50 48 46 45 45 44 43 42 43 43 43 43 42 42 43 42 42 41 39 38 38 40 41 40 41 41 41 42 43 43 44 44 44 44 45 46 46 46 46 46 47 46 47 48 51 52 52 51 48 46 44 43 44 45 47 49 48 46 44 43 46 49 48 50 54 54 56 59 59 58
48 49 49 50 51 51 51 51 50 49 49 49 49 49 48 46 45 44 44 44 43 41 39 40 41 42 41 39 39 40 41 42 44 43 41 40 41 42 43 45 46 46 46 45 44 45 45 44 45 46 46 47 49 49 49 49 49 50 53 54 54 54 53 51 48 47 50 54 55 55 55 54 52 51 50 52 53 54 56 57 57 58 61 62 62
46 47 47 47 48 49 49 49 49 48 47 48 48 47 45 43 42 42 42 43 42 40 38 39 41 41 40 38 38 39 40 42 44 45 43 42 42 43 45 47 49 49 49 48 48 48 48 46 46 48 49 51 51 51 51 50 50 52 54 54 54 55 54 52 51 53 57 58 56 55 55 55 54 54 54 55 57 59 60 61 60 61 62 64 65
44 44 45 45 45 46 46 46 46 46 46 47 47 45 44 42 40 40 40 40 40 39 38 38 38 38 40 40 41 41 42 43 44 45 44 43 43 45 47 50 52 52 51 50 51 52 53 53 53 54 57 58 58 58 57 56 56 56 56 56 56 56 56 57 59 61 62 60 58 57 56 56 56 57 58 59 61 63 64 64 64 64 64 65 67
43 43 43 44 44 45 45 45 45 45 45 46 46 45 43 40 39 38 38 38 38 38 39 39 38 38 40 43 45 46 48 49 50 51 51 51 49 48 49 51 53 54 54 54 55 57 59 59 59 60 61 61 61 62 62 62 61 60 60 60 61 62 64 65 67 68 68 67 66 65 64 63 62 62 63 63 63 64 66 67 68 68 69 70 71
42 42 42 43 44 44 44 44 44 44 45 45 45 44 43 41 39 38 38 37 38 38 39 40 42 42 43 44 46 48 50 52 53 55 57 58 56 54 53 54 55 56 57 59 60 61 62 63 63 63 63 63 63 64 64 65 65 64 63 62 63 64 65 65 66 66 67 67 67 66 66 66 65 65 66 66 66 67 68 70 71 73 74 75 76
40 40 41 42 43 43 44 44 44 44 44 45 45 45 44 44 43 43 42 41 41 41 41 41 42 44 46 46 47 49 50 51 53 54 56 58 59 59 59 58 59 59 60 61 62 62 63 64 64 64 64 64 64 65 66 66 65 64 63 62 61 61 61 61 61 61 61 61 62 63 64 65 66 67 68 69 70 70 71 72 73 74 75 76 77
38 39 40 41 42 43 43 44 44 44 44 44 45 45 46 46 46 46 46 46 45 45 45 44 43 43 44 46 47 48 48 49 50 51 52 53 54 55 55 55 56 57 57 58 58 58 58 59 59 60 60 60 59 60 60 60 60 59 58 58 58 59 59 59 59 60 60 61 62 63 64 65 66 67 67 67 68 68 68 69 69 70 71 72 73
36 37 39 39 40 41 41 42 43 43 43 44 44 44 44 43 44 44 44 44 44 44 43 42 41 41 42 43 44 45 45 45 45 46 47 47 48 48 49 49 49 50 51 51 51 51 51 52 52 53 54 55 55 56 56 56 56 56 56 57 58 58 59 60 61 61 62 62 62 62 62 62 62 61 61 61 61 61 62 62 62 62 63 64 66
34 35 36 38 38 39 39 40 39 40 41 42 42 42 42 42 42 43 42 42 41 41 40 39 39 39 40 41 40 41 42 42 41 42 43 43 44 45 46 46 47 48 49 49 49 49 49 49 50 50 50 51 53 54 55 56 56 57 58 59 59 60 60 61 61 61 60 59 58 57 56 56 55 55 56 56 56 56 55 55 55 55 55 56 57
32 33 34 35 36 36 36 35 35 35 35 36 37 38 38 39 38 39 40 40 40 40 40 40 38 38 38 39 39 40 41 42 42 42 43 43 44 44 45 46 47 48 49 49 49 50 50 50 50 50 51 51 52 53 54 55 56 57 58 58 58 59 58 57 57 57 55 53 53 53 53 54 54 54 54 54 54 54 53 52 52 52 52 52 52
30 30 31 32 32 32 31 31 32 32 32 32 34 35 35 34 34 35 36 37 37 37 37 37 37 37 38 39 40 41 42 42 43 43 44 44 45 45 45 45 46 46 47 47 47 48 48 48 48 48 49 50 51 52 53 53 54 56 56 55 55 55 54 53 54 53 51 50 51 53 53 54 54 54 54 54 54 54 54 54 53 53 53 53 53
29 28 28 28 29 29 29 28 28 30 30 31 33 35 34 34 35 36 37 37 37 37 37 38 37 38 38 39 40 40 41 40 40 40 40 40 40 40 41 41 42 42 42 42 43 43 43 43 43 44 45 46 47 49 50 51 52 53 53 53 53 52 51 52 53 53 51 51 52 53 54 54 53 53 53 54 55 56 56 56 56 56 56 56 56
28 28 27 26 26 27 28 28 26 26 28 30 31 33 33 33 34 35 36 37 38 38 39 39 39 38 38 37 37 37 38 37 37 37 36 36 35 35 35 36 36 37 37 38 38 39 39 40 41 41 42 44 45 46 48 49 51 53 53 54 54 53 54 56 57 56 56 57 56 55 55 55 55 56 56 57 57 56 57 58 58 58 58 58 58
27 28 27 27 26 26 27 28 26 25 27 29 30 31 33 34 35 34 34 35 37 37 38 38 37 37 36 36 35 34 35 35 35 35 35 35 36 36 37 38 38 39 39 39 39 40 40 41 42 42 44 45 46 47 48 50 51 53 54 55 55 55 57 60 60 59 60 60 59 58 58 58 59 60 60 61 61 60 59 59 60 60 60 59 59
27 28 28 28 27 26 27 27 27 27 29 30 31 32 33 34 35 34 33 33 34 35 35 34 34 33 33 33 34 34 35 35 36 37 37 38 39 40 41 42 43 43 43 43 44 44 45 45 46 46 47 48 49 50 51 52 53 54 55 56 56 55 56 59 60 59 59 60 61 61 62 62 63 64 64 64 65 64 62 62 61 61 61 61 61
27 27 27 27 27 27 27 27 28 29 30 30 30 31 32 32 33 33 33 32 32 32 32 32 32 32 32 32 33 34 36 37 38 38 39 39 40 40 41 42 43 44 45 45 46 46 47 48 49 49 49 50 51 52 53 53 54 56 57 58 58 57 57 59 61 62 61 62 63 64 65 66 66 66 66 66 66 66 64 63 63 63 63 63 64
26 26 27 27 27 27 28 28 28 28 29 30 30 30 31 32 33 33 33 33 33 34 34 34 34 34 34 34 35 35 36 37 37 37 37 37 37 38 39 42 44 44 44 44 45 46 47 48 49 50 50 51 52 53 53 54 55 56 57 58 58 57 57 58 61 63 63 63 63 64 66 67 67 67 67 66 67 67 66 65 65 65 65 65 66
27 27 27 27 27 27 28 28 28 27 28 28 28 29 30 31 32 33 33 33 34 35 35 33 33 33 34 35 35 34 35 36 37 37 38 39 40 41 43 46 47 47 47 48 49 50 51 51 52 53 53 54 55 55 56 56 57 58 58 58 57 58 58 60 62 64 66 66 66 67 68 68 68 68 68 68 68 69 69 69 68 68 67 67 68
29 28 29 29 29 29 29 29 29 29 29 29 28 28 29 30 30 31 31 31 32 33 33 32 32 33 34 35 36 37 39 41 42 43 43 44 45 47 49 50 51 52 53 54 55 55 55 55 55 56 56 57 57 58 59 60 61 61 61 61 62 63 64 66 66 68 70 71 71 71 71 71 71 71 71 71 71 71 71 72 72 71 70 70 70
31 31 31 31 31 31 32 32 32 32 32 31 30 30 30 30 30 30 30 31 32 33 34 35 37 38 39 40 41 43 45 46 46 46 47 47 48 49 51 52 53 54 56 57 58 58 58 57 57 58 59 60 61 61 62 63 64 65 65 65 67 69 70 71 72 73 75 75 76 75 75 74 74 74 75 75 75 75 75 75 75 75 75 74 74
34 34 34 34 34 34 34 35 34 33 33 33 33 33 33 33 33 34 35 36 37 39 41 42 44 44 45 45 46 47 47 48 49 50 51 52 52 52 53 55 56 58 60 61 62 62 63 63 64 65 66 66 66 66 66 66 67 68 69 69 71 73 74 75 76 78 78 79 79 79 79 79 78 79 79 79 78 78 77 76 76 77 77 77 77
35 36 36 36 36 36 37 38 37 35 35 36 36 36 36 36 37 38 39 41 43 44 46 47 48 48 48 49 49 50 50 51 53 54 55 56 57 58 60 62 63 64 66 67 68 69 69 70 71 72 72 71 70 70 70 70 70 71 71 72 73 75 76 78 78 79 80 81 81 80 79 80 80 80 80 80 81 80 80 80 79 79 79 79 79
37 37 38 38 39 39 40 41 41 40 39 39 39 40 40 41 41 42 43 44 45 46 48 50 51 52 52 52 53 54 55 56 57 57 58 61 63 65 67 68 69 70 70 71 72 72 73 73 74 74 74 73 72 72 72 73 73 73 74 75 76 78 79 80 81 81 82 82 83 83 82 82 83 83 83 84 85 85 85 85 85 84 84 84 84
39 40 40 40 41 41 42 44 45 45 45 45 45 45 45 46 46 47 48 49 49 50 52 54 55 56 56 56 58 59 60 61 61 62 64 67 69 70 71 72 72 72 72 72 73 72 72 73 73 74 73 73 73 73 73 74 75 75 76 77 78 79 80 81 83 83 83 83 84 85 86 86 87 87 87 88 89 89 89 89 88 88 88 87 87
42 44 44 43 43 43 44 44 46 47 49 50 51 51 51 51 52 53 54 55 56 56 57 59 60 61 62 62 63 64 65 66 67 69 71 73 73 73 73 73 73 73 72 72 72 71 71 71 72 72 72 73 72 72 72 73 74 75 76 77 78 79 80 81 82 84 84 84 85 85 86 87 88 89 89 89 89 90 91 91 90 90 90 89 89
44 45 46 46 46 46 45 46 46 47 49 50 52 53 54 55 56 57 58 59 60 61 62 63 64 66 68 69 69 69 69 71 73 74 75 74 73 73 73 73 72 72 72 72 71 71 70 70 70 70 71 71 72 72 73 73 73 74 75 76 77 78 79 80 82 83 84 85 86 87 87 87 88 90 91 92 92 91 92 92 93 92 92 92 93
45 45 46 47 47 47 47 47 47 47 48 49 51 51 52 53 54 56 58 60 61 62 64 65 66 67 69 70 71 71 72 73 73 73 73 72 73 73 73 73 73 72 72 72 72 72 71 71 72 72 73 74 75 77 77 78 78 79 79 80 80 81 81 82 83 84 85 87 88 90 90 90 91 92 93 95 96 95 95 95 96 96 95 95 96
44 45 46 47 47 47 47 47 48 48 48 49 50 51 52 52 53 54 56 57 59 61 62 64 66 67 68 70 71 71 71 71 71 71 71 73 74 75 75 75 74 74 74 74 74 75 75 76 77 78 79 80 81 81 82 82 83 84 84 85 85 85 85 86 86 87 88 90 91 92 93 94 94 94 94 96 97 97 97 96 97 97 97 97 97
44 45 47 48 49 49 49 49 50 51 51 51 52 53 54 55 57 58 58 59 59 60 61 62 63 64 66 67 68 68 69 69 70 71 73 75 76 77 77 77 77 77 77 78 79 81 82 83 83 83 84 85 85 84 84 85 86 86 86 87 88 88 89 90 91 92 93 93 94 95 95 95 96 95 95 96 96 97 97 96 97 97 96 96 95
47 48 50 51 52 52 52 52 52 53 54 54 55 55 56 56 57 58 59 60 60 60 61 61 61 62 63 65 66 68 70 71 73 75 76 78 78 78 79 79 81 81 82 83 85 86 87 87 87 87 87 88 88 87 87 88 88 88 89 90 91 93 94 95 96 97 97 97 97 97 96 96 96 96 96 96 96 96 96 95 95 95 95 94 94
50 51 52 53 54 54 54 55 55 55 56 57 58 58 58 58 59 59 60 60 61 62 63 63 64 65 67 69 71 73 74 76 78 79 80 81 82 83 83 84 85 85 86 86 88 89 90 91 91 90 91 92 93 92 91 92 93 93 94 95 96 97 98 99 99 99 99 99 98 97 97 96 96 96 96 96 96 96 95 94 94 94 94 94 94
53 54 54 55 56 56 56 58 59 59 59 60 61 62 62 62 63 64 64 64 65 67 69 70 71 72 74 76 78 79 80 81 82 83 83 84 85 86 87 87 87 88 89 90 92 93 94 94 94 93 94 95 97 97 96 97 98 98 99 99 100 100 100 100 99 99 99 98 98 97 97 97 97 97 97 97 97 96 96 95 94 93 93 93 93
55 56 57 58 60 61 61 62 63 63 64 65 65 66 67 67 68 68 68 69 70 72 74 75 77 78 79 81 82 84 85 85 86 86 86 87 88 89 90 90 91 93 94 94 95 95 95 95 96 95 96 98 100 100 99 99 99 99 99 99 99 99 99 98 98 98 98 98 98 98 98 98 98 97 97 96 96 95 95 94 93 91 90 89 89
60 60 60 61 62 64 65 65 66 67 68 69 69 70 71 71 71 71 72 74 75 77 78 79 79 80 81 82 84 85 87 88 88 89 89 90 92 94 94 95 95 96 96 96 96 96 96 96 96 96 97 98 99 99 98 98 98 97 97 97 97 97 97 96 96 96 96 96 96 95 95 95 94 93 93 92 91 91 90 88 87 86 85 83 82
Wind_Direction
268 269 270 275 277 271 270 273 277 282 285 284 285 286 283 282 282 280 277 272 271 278 283 284 286 290 296 304 309 310 308 309 309 315 343 2 357 353 352 357 11 22 31 34 33 29 14 334 292 276 268 262 257 252 249 247 247 247 248 250 251 253 255 256 258 259 261 263 265 267 268 271 273 275 278 282 285 289 294 295 295 295 294 294 294
266 269 272 276 274 269 269 275 278 281 283 282 282 284 282 280 277 277 278 274 271 275 281 284 284 284 287 291 297 302 303 304 303 301 309 332 348 351 344 337 342 351 359 9 22 30 29 17 335 275 264 262 261 260 259 256 254 253 252 252 252 253 255 256 258 259 260 261 263 265 267 269 273 276 277 279 282 286 288 290 293 294 294 293 293
266 271 274 275 272 269 271 277 281 281 281 280 280 281 281 277 273 273 276 276 272 273 279 286 287 283 281 282 286 292 297 299 298 295 296 301 313 334 339 332 329 337 343 347 351 359 4 4 358 334 297 274 262 258 258 257 257 256 255 254 254 254 255 257 258 259 260 261 262 264 266 268 271 273 273 272 273 273 271 270 274 282 287 289 292
271 275 276 275 273 274 277 280 281 281 280 279 279 280 278 275 270 269 273 274 270 272 277 283 285 282 277 275 275 279 287 290 290 290 291 291 294 304 314 317 323 332 334 335 336 336 336 336 337 337 333 323 305 284 273 266 263 262 260 259 258 257 257 258 260 261 261 262 262 263 265 266 266 268 270 271 270 269 268 263 261 267 273 278 287
276 280 280 279 277 277 280 282 283 283 280 277 278 278 276 273 270 267 268 267 264 264 269 272 273 274 276 274 268 270 275 278 282 285 286 286 287 293 299 298 295 301 311 317 321 325 327 328 328 330 331 329 325 319 310 301 295 291 287 282 278 274 270 266 265 265 265 266 266 265 266 267 267 267 270 272 271 270 270 266 263 266 267 271 282
285 284 283 283 281 280 281 280 278 276 274 272 270 272 274 274 273 269 265 261 259 258 261 264 265 268 272 272 268 268 270 272 279 285 286 283 280 285 295 293 285 283 292 304 309 311 316 318 318 323 328 327 323 320 320 318 317 316 312 306 301 297 291 283 278 277 277 278 277 275 272 270 269 269 270 271 271 271 272 269 265 266 268 271 278
282 273 269 270 271 271 269 265 262 261 263 264 260 259 263 264 266 268 264 258 256 257 259 261 262 264 266 268 270 271 270 270 271 276 283 283 277 278 284 287 287 286 287 291 294 298 307 310 305 306 315 320 318 313 313 315 315 314 314 312 310 307 302 296 291 288 287 286 284 281 277 272 269 267 267 269 270 271 270 269 267 267 268 270 273
263 256 254 253 253 253 252 253 256 258 259 260 259 257 256 254 257 262 261 256 255 259 260 257 258 261 263 264 266 267 269 271 268 266 273 277 274 274 274 277 285 288 286 285 282 285 295 300 303 303 299 300 306 304 300 301 303 305 307 306 306 307 306 305 305 301 296 293 291 288 283 278 273 269 268 270 272 273 272 272 272 270 269 271 274
251 250 250 250 250 252 252 252 255 258 258 258 258 257 256 253 254 258 260 259 260 260 257 254 256 260 262 263 264 263 264 268 267 263 265 267 264 266 269 270 274 279 282 280 275 278 286 292 298 301 290 287 296 296 288 285 288 295 303 302 299 298 298 300 302 304 304 300 296 295 291 285 280 279 278 277 277 278 279 278 276 273 272 274 276
247 249 251 252 253 254 255 254 253 254 258 258 257 256 255 255 256 258 260 261 261 257 254 254 256 259 261 260 262 265 264 264 263 260 259 259 257 258 264 268 268 268 271 273 273 276 281 283 285 289 286 284 287 284 278 278 280 283 291 296 296 295 295 294 292 294 298 298 297 298 295 291 289 287 286 287 287 285 284 283 280 277 276 275 275
248 250 252 253 254 254 254 254 253 252 254 257 258 257 256 256 257 258 260 261 260 257 257 259 258 257 258 257 258 263 264 261 259 256 254 256 256 256 260 265 265 263 263 266 269 269 272 275 277 279 278 277 277 274 272 276 280 280 282 287 291 293 293 293 290 287 288 291 293 294 295 297 298 296 295 296 293 286 284 285 285 283 280 278 277
249 250 251 252 253 254 254 254 254 254 253 255 259 260 259 257 256 257 259 261 262 260 260 262 259 255 255 255 256 259 262 263 260 255 254 256 256 256 257 260 261 261 259 259 260 262 264 267 268 269 269 269 271 270 268 271 276 279 279 281 287 290 290 291 293 291 286 285 286 286 289 296 300 302 302 296 287 280 279 283 287 287 285 282 280
249 250 251 251 252 253 254 255 256 256 255 254 257 259 259 259 257 257 258 259 261 262 261 262 261 256 253 252 254 256 262 266 264 259 259 259 258 258 258 258 258 258 258 256 255 256 258 259 260 263 264 265 268 270 269 270 275 278 277 278 283 288 289 288 292 295 291 286 284 284 289 297 300 300 295 285 280 279 280 282 285 285 285 284 283
248 249 250 251 252 253 254 255 256 257 256 254 255 256 258 259 259 258 258 259 260 262 261 259 258 256 252 250 252 254 257 262 265 265 263 261 260 260 259 258 256 255 255 255 254 252 253 255 258 262 264 264 265 268 270 273 275 277 277 277 280 286 289 287 286 291 291 285 282 282 285 289 289 287 284 280 278 280 283 283 281 279 280 281 283
247 249 250 250 251 252 253 254 255 255 255 255 255 255 257 258 259 259 259 259 259 260 259 256 255 255 253 252 251 252 253 256 264 270 268 263 260 260 261 260 258 255 254 254 254 253 253 256 259 261 265 267 267 268 270 272 274 272 272 273 275 282 287 285 282 283 282 277 275 275 276 278 277 276 277 279 279 281 282 282 279 277 278 278 280
247 248 250 250 250 250 252 252 252 253 254 255 255 256 257 258 259 259 258 258 258 258 258 257 254 254 255 255 254 253 254 255 259 265 266 260 256 259 263 263 261 258 257 256 255 255 255 257 260 262 265 267 268 267 268 270 271 269 268 271 274 278 282 282 279 277 276 274 271 271 274 276 275 272 271 272 275 277 278 279 279 280 280 280 280
247 247 248 249 250 251 251 252 252 252 252 254 255 256 257 257 257 257 257 257 258 259 259 258 256 256 256 257 256 254 253 251 252 257 262 258 253 254 259 262 262 262 261 260 258 258 258 260 262 263 264 265 266 267 268 269 269 268 269 272 275 276 279 279 275 271 273 277 276 274 276 277 276 273 271 270 271 273 274 276 281 282 281 281 281
248 247 246 247 248 249 251 252 253 254 254 255 255 256 256 256 255 254 254 255 256 259 260 259 257 256 256 255 255 254 252 249 249 254 260 260 256 252 252 256 260 262 261 259 257 256 258 260 261 260 261 262 264 265 266 268 269 270 270 272 274 276 277 276 272 270 275 280 279 276 276 276 275 274 273 272 272 272 273 275 278 280 281 281 281
249 249 249 247 248 249 250 251 253 254 254 255 256 257 258 258 256 255 254 254 254 257 259 259 257 255 254 250 247 248 248 247 249 253 256 258 257 253 251 253 256 257 256 253 252 252 254 256 258 260 264 266 266 265 266 267 269 270 270 270 272 273 272 271 270 272 277 280 279 277 276 276 275 273 273 273 274 274 274 275 276 277 279 280 280
250 250 250 249 249 250 250 250 251 252 254 255 256 258 260 261 260 258 257 257 256 255 255 255 254 253 251 247 244 245 246 246 248 251 254 255 255 252 251 251 252 253 252 251 252 255 258 259 261 264 269 271 271 272 272 272 272 271 269 268 269 270 270 270 273 276 278 278 278 278 277 277 275 274 274 274 274 274 274 275 275 275 276 277 278
251 251 251 251 250 250 251 251 250 251 253 255 256 259 261 263 263 262 261 260 259 258 255 252 250 251 250 249 249 251 252 252 253 253 255 256 254 251 249 249 250 251 253 255 258 262 264 265 265 267 269 271 271 273 275 276 276 273 270 268 268 268 269 271 273 275 276 276 276 276 276 276 276 276 276 275 274 273 274 275 276 276 277 277 277
255 254 253 253 253 253 253 254 253 252 252 254 255 257 259 260 261 262 263 262 261 260 258 255 252 253 254 255 255 255 256 257 257 257 256 257 256 254 254 254 254 255 257 260 263 266 268 269 269 269 270 271 272 273 274 275 276 275 273 272 271 271 271 271 272 273 274 275 276 276 277 277 277 277 277 276 275 274 274 274 276 277 278 278 278
257 257 257 257 256 256 257 257 257 255 255 255 256 257 258 259 260 261 262 262 262 261 260 258 255 255 255 257 258 258 259 260 260 260 261 261 262 263 264 264 264 263 264 266 267 268 269 270 271 271 272 273 273 274 274 274 275 275 275 275 275 274 274 274 275 275 276 276 277 277 277 277 277 277 277 276 276 275 275 276 276 277 277 277 277
255 257 258 259 259 259 259 260 260 260 259 259 259 259 260 260 261 261 261 262 262 262 262 261 260 260 259 259 260 261 262 262 263 263 264 265 267 268 269 270 270 270 270 270 270 270 270 270 271 271 271 272 272 273 273 274 274 274 274 274 274 274 275 276 276 277 277 277 277 277 277 276 276 276 276 276 276 277 277 278 278 278 277 277 277
253 254 256 257 258 259 260 260 261 262 262 263 263 263 264 264 264 264 264 264 264 264 264 264 265 266 265 265 265 265 265 265 266 267 268 269 269 270 271 272 273 273 272 272 272 271 271 271 271 271 270 269 268 268 269 270 271 272 273 273 274 274 275 276 276 276 276 276 276 276 276 276 276 277 277 278 279 279 280 280 280 279 279 278 277
254 253 254 255 256 258 259 261 262 262 263 263 264 264 265 266 267 268 268 268 267 267 267 268 269 269 269 268 268 268 267 267 268 269 270 271 271 272 272 272 273 273 273 273 273 273 273 272 272 272 271 270 268 267 268 269 270 271 272 272 273 273 274 274 274 274 274 275 275 275 275 276 277 278 279 280 280 281 281 281 281 281 281 280 280
253 252 252 252 253 255 258 261 263 264 265 266 265 264 264 264 264 266 267 267 267 266 265 265 265 267 267 267 267 268 269 269 268 268 269 270 270 271 271 272 272 272 272 272 272 272 273 273 272 272 271 270 270 269 268 268 268 268 268 269 269 270 270 271 271 272 272 273 274 275 275 276 276 277 278 279 280 280 280 280 281 281 282 282 282
253 252 252 251 251 252 256 259 261 263 266 267 266 265 264 263 264 265 265 264 263 263 263 263 264 265 266 266 267 268 269 270 270 270 271 271 272 272 273 273 273 273 273 273 273 272 272 272 272 272 271 270 269 269 268 267 266 266 266 266 266 267 268 268 268 269 271 273 275 276 276 277 277 277 278 278 279 279 279 279 280 280 281 282 282
256 254 254 255 254 253 254 257 260 265 267 266 266 267 269 269 269 269 269 268 267 266 268 269 271 271 270 269 269 269 270 270 271 271 272 273 273 274 274 275 275 274 274 273 273 272 272 271 271 271 271 271 270 269 268 268 267 266 265 265 265 265 266 267 268 270 272 274 276 278 278 277 276 277 278 279 279 279 280 280 280 280 281 282 282
259 258 257 257 256 254 254 254 258 264 265 265 265 267 269 271 271 270 270 271 271 271 272 274 274 274 272 271 270 270 271 271 271 271 271 272 272 272 273 274 274 275 275 274 274 273 273 272 272 271 271 271 270 270 270 269 268 267 267 267 267 267 267 268 269 272 275 277 277 278 278 277 276 277 279 280 280 280 280 280 280 280 281 281 282
259 260 261 261 260 260 260 260 261 264 266 266 264 264 266 270 273 273 273 273 273 273 273 274 275 274 273 273 272 271 271 272 272 272 272 273 273 274 275 276 276 276 276 276 276 276 275 274 274 273 273 272 272 271 271 270 270 270 270 270 270 270 271 272 273 274 276 278 279 280 280 279 279 279 280 281 281 281 281 281 280 280 280 280 281
257 259 262 263 263 264 265 265 265 265 267 268 268 267 268 270 273 274 274 274 274 274 274 273 273 273 273 274 274 273 272 272 272 273 274 276 277 278 279 279 279 279 279 279 278 278 277 276 276 275 275 275 275 275 274 274 274 274 274 274 273 273 274 275 276 277 278 279 280 281 281 280 280 280 280 280 280 280 280 280 279 279 279 279 279
258 260 261 261 262 262 263 264 264 264 264 265 267 268 268 269 270 272 273 272 272 273 273 274 274 274 274 273 273 273 273 274 274 275 276 277 278 279 280 281 281 281 281 281 280 280 280 279 279 279 278 278 279 279 278 278 279 278 278 277 277 277 277 278 279 279 278 279 279 279 279 279 279 279 279 279 279 279 278 278 278 278 278 278 278
260 262 262 263 263 262 263 265 266 266 266 266 266 267 266 266 267 269 271 271 271 272 272 273 274 274 273 273 273 272 273 274 274 275 277 277 278 280 282 283 283 281 280 279 280 281 282 281 281 281 280 281 281 281 281 280 281 281 281 280 279 279 279 280 280 280 280 279 279 279 279 279 279 279 279 278 278 278 278 277 277 276 276 277 277
261 263 264 265 265 264 265 265 265 266 269 270 270 269 269 268 268 268 268 269 270 272 273 273 274 275 275 275 275 275 276 277 278 279 279 280 280 281 283 283 283 281 279 279 280 281 282 282 281 281 281 281 281 282 281 281 281 282 282 281 279 279 280 281 281 281 281 280 280 280 280 280 279 279 278 278 278 277 277 277 277 276 276 276 276
260 262 264 265 265 265 264 263 263 267 272 273 273 273 273 273 272 271 270 269 269 270 270 271 274 276 276 275 276 279 281 282 282 282 282 282 282 283 284 284 284 283 282 282 283 283 283 283 283 282 282 282 282 282 282 282 282 282 281 280 280 279 280 280 281 281 281 281 280 280 280 280 279 278 278 277 277 277 277 277 277 277 276 276 276
261 262 263 264 265 265 264 262 264 268 272 273 273 273 274 274 273 273 273 273 271 270 271 273 276 277 277 276 277 279 281 282 282 282 282 282 283 284 285 285 286 286 285 285 285 286 285 285 284 284 284 284 284 283 283 282 282 281 280 280 279 279 279 279 279 279 279 280 280 280 279 279 278 278 277 277 277 277 277 277 277 277 277 277 276
262 262 263 264 266 267 265 263 263 267 271 274 273 273 273 272 273 273 274 274 274 274 275 276 278 278 279 279 279 280 281 281 282 282 282 283 283 283 284 284 285 286 287 286 286 286 286 286 285 285 285 285 285 284 282 281 280 280 280 279 279 278 278 278 279 279 279 279 280 280 280 279 278 278 278 277 277 277 277 277 277 277 277 278 278
265 264 263 264 265 266 265 264 262 264 268 272 273 273 273 273 273 274 275 275 276 277 277 278 278 278 279 279 279 280 280 281 282 282 283 283 284 284 284 285 285 286 287 287 287 287 287 286 286 285 285 284 284 282 281 280 279 278 278 278 278 278 278 278 278 279 280 280 280 280 279 279 279 279 278 278 277 277 277 277 277 276 276 277 277
272 269 266 265 264 264 264 263 263 263 265 268 270 271 271 272 272 272 272 273 273 274 275 276 276 276 276 277 277 278 279 280 281 282 283 284 286 286 286 286 286 286 286 287 287 286 286 285 284 283 283 282 281 280 279 278 277 277 276 276 276 276 276 277 277 277 278 279 279 279 278 278 278 278 277 277 277 277 277 277 277 276 276 276 276
276 274 272 269 267 266 265 265 265 265 266 267 268 269 270 272 272 272 272 272 272 273 274 275 276 277 277 278 279 279 280 280 281 283 285 287 289 289 289 288 288 288 288 287 286 286 285 283 283 282 281 280 280 279 278 277 277 277 276 276 276 276 276 276 276 276 276 276 277 277 278 278 278 277 277 277 277 277 277 277 277 277 277 277 276
279 278 276 274 273 272 270 270 270 270 270 271 271 271 272 273 274 275 276 276 276 276 277 278 279 280 281 281 281 281 281 282 283 286 289 290 291 291 291 291 291 290 290 289 288 288 287 285 284 283 282 281 280 279 279 278 278 278 278 278 278 278 277 277 277 277 277 277 277 277 277 278 278 278 278 277 277 278 278 278 278 278 277 277 277
281 281 279 279 278 277 276 276 276 276 276 276 276 276 277 277 278 278 279 279 279 280 280 281 282 282 283 283 283 283 283 284 286 289 291 292 292 292 292 292 292 292 291 291 290 290 289 287 286 285 284 283 282 282 281 280 280 280 280 280 280 280 280 279 279 278 278 278 278 277 277 277 277 277 278 277 277 277 277 277 277 277 278 278 278
280 280 280 280 281 280 279 279 279 279 280 281 281 281 281 282 282 283 283 282 282 282 281 282 282 283 283 284 284 285 285 287 288 290 291 292 293 293 293 293 292 292 291 291 290 290 289 288 287 286 286 285 285 284 283 283 283 283 283 283 282 282 281 281 280 280 279 279 278 278 278 277 277 277 277 277 277 277 277 277 277 277 277 277 277
279 280 280 281 282 282 280 279 278 279 281 284 284 283 283 284 284 285 285 285 285 284 283 282 282 283 283 284 285 286 287 288 289 291 292 293 294 294 294 293 292 291 291 290 290 290 289 289 288 288 288 288 287 286 285 285 284 284 284 284 283 283 283 282 282 282 281 281 280 280 279 279 278 278 277 277 278 277 277 277 277 277 277 277 277
277 279 280 281 282 283 283 281 279 279 282 285 286 285 285 286 286 286 286 286 286 286 285 285 284 284 284 285 286 287 288 289 291 292 294 295 295 295 294 293 292 291 290 290 290 290 290 290 290 290 290 289 288 288 287 286 285 284 284 284 284 284 284 284 284 283 283 283 282 281 281 280 279 279 278 278 278 278 278 277 277 277 277 277 277
277 278 280 281 282 283 284 283 281 281 282 285 286 286 288 288 289 288 288 288 287 287 286 286 286 286 286 286 287 288 289 291 292 293 295 295 295 294 293 293 293 292 292 291 291 291 291 291 291 291 291 290 289 288 287 286 285 285 285 284 284 284 284 284 284 284 283 283 283 282 281 281 280 280 279 279 279 278 278 278 278 278 278 278 277
278 278 279 281 282 282 282 282 282 282 283 285 286 287 288 289 289 289 289 289 288 288 288 288 288 288 288 288 289 290 291 292 293 294 294 294 294 293 294 294 294 293 293 293 293 292 292 292 291 291 290 289 289 288 287 286 286 285 285 285 284 284 284 284 284 284 284 283 283 282 282 281 281 281 281 281 280 280 279 279 279 278 279 279 278
281 280 279 279 279 280 280 281 282 283 284 285 286 286 287 288 289 289 288 288 289 289 289 290 290 290 290 291 291 292 293 293 294 294 294 294 294 294 294 294 294 293 293 292 291 291 290 290 290 290 290 289 288 288 287 287 286 286 285 285 285 284 284 284 284 283 283 283 283 282 282 282 281 281 281 281 281 280 280 280 279 279 279 279 279
282 282 281 279 278 279 280 281 282 283 284 285 286 287 288 288 289 289 289 289 289 289 289 290 290 291 291 292 293 294 294 295 295 295 295 295 294 294 294 293 292 292 292 291 291 291 290 290 290 290 290 289 289 288 288 287 286 286 285 285 285 284 284 283 283 283 283 282 282 282 282 281 281 281 280 280 280 280 279 279 279 279 278 278 278
281 282 282 280 279 279 280 281 282 284 285 286 286 287 288 288 289 289 289 289 290 290 290 291 291 292 293 293 294 295 295 296 296 296 295 294 294 293 293 293 293 293 293 293 293 292 292 292 291 291 290 289 288 288 287 287 286 286 285 285 284 284 283 283 282 282 282 281 281 281 281 280 280 280 279 279 279 278 278 278 278 277 277 277 276
Height
10982 10982 10982 10983 10985 10986 10985 10985 10986 10987 10987 10986 10986 10987 10987 10987 10987 10986 10986 10987 10987 10987 10987 10987 10987 10987 10987 10987 10986 10985 10985 10985 10984 10984 10983 10981 10981 10980 10979 10978 10977 10976 10975 10974 10973 10972 10972 10972 10972 10972 10973 10973 10974 10975 10976 10976 10977 10977 10978 10979 10979 10980 10981 10982 10982 10983 10983 10983 10983 10983 10983 10983 10984 10986 10986 10986 10986 10986 10984 10980 10977 10975 10974 10973 10972
10980 10980 10980 10981 10982 10983 10982 10982 10983 10984 10984 10983 10982 10983 10983 10983 10983 10983 10984 10984 10984 10984 10985 10984 10985 10985 10985 10985 10984 10984 10984 10984 10983 10983 10982 10981 10980 10979 10978 10977 10976 10976 10975 10974 10973 10972 10971 10971 10970 10970 10970 10970 10970 10971 10971 10972 10972 10973 10973 10974 10974 10975 10977 10977 10977 10977 10978 10978 10978 10978 10978 10979 10981 10982 10983 10984 10983 10981 10980 10978 10974 10971 10969 10966 10966
10978 10978 10979 10980 10980 10979 10979 10979 10979 10980 10979 10978 10978 10978 10979 10978 10979 10980 10980 10981 10981 10981 10982 10982 10982 10982 10983 10983 10983 10982 10982 10982 10981 10981 10981 10980 10979 10979 10978 10977 10976 10975 10974 10973 10973 10972 10971 10970 10970 10969 10969 10968 10968 10968 10968 10968 10968 10968 10968 10968 10969 10970 10972 10972 10971 10971 10972 10972 10973 10974 10975 10976 10977 10977 10978 10980 10979 10975 10974 10973 10971 10968 10965 10960 10959
10978 10979 10980 10980 10978 10977 10977 10976 10975 10975 10974 10972 10973 10974 10974 10974 10975 10977 10977 10978 10979 10978 10979 10979 10979 10979 10979 10980 10980 10980 10980 10980 10979 10979 10978 10978 10977 10977 10977 10977 10975 10974 10973 10973 10972 10971 10970 10970 10969 10968 10968 10968 10967 10967 10966 10965 10965 10964 10964 10965 10965 10966 10967 10967 10966 10967 10967 10967 10968 10970 10971 10972 10973 10973 10973 10974 10974 10971 10969 10968 10965 10962 10960 10956 10954
10980 10980 10981 10980 10977 10975 10974 10972 10971 10971 10968 10966 10967 10968 10969 10970 10971 10973 10974 10976 10976 10975 10974 10975 10974 10974 10975 10976 10977 10977 10978 10977 10976 10976 10976 10975 10975 10975 10975 10975 10974 10972 10972 10971 10971 10971 10970 10969 10968 10967 10967 10967 10967 10966 10966 10965 10964 10963 10963 10963 10963 10963 10964 10964 10963 10963 10963 10963 10964 10966 10967 10968 10968 10968 10969 10969 10968 10966 10965 10964 10960 10957 10956 10954 10951
10982 10981 10980 10979 10975 10971 10970 10969 10968 10965 10958 10957 10962 10963 10965 10969 10969 10970 10970 10971 10971 10970 10970 10970 10970 10971 10971 10972 10973 10974 10974 10974 10974 10973 10973 10973 10972 10973 10973 10972 10971 10970 10970 10970 10971 10971 10969 10968 10967 10966 10966 10966 10966 10966 10965 10964 10963 10963 10962 10962 10961 10961 10961 10961 10960 10960 10960 10960 10961 10962 10963 10964 10963 10963 10964 10964 10962 10961 10961 10959 10956 10954 10953 10951 10949
10981 10978 10974 10972 10966 10962 10962 10961 10957 10953 10947 10947 10954 10957 10961 10966 10967 10966 10965 10965 10965 10966 10966 10967 10967 10968 10969 10969 10970 10970 10970 10971 10970 10970 10970 10970 10970 10969 10969 10969 10968 10968 10967 10968 10969 10970 10969 10968 10966 10964 10964 10965 10965 10964 10964 10963 10962 10962 10961 10960 10960 10959 10959 10958 10958 10958 10957 10957 10958 10958 10958 10958 10958 10957 10959 10959 10958 10957 10956 10954 10951 10950 10950 10948 10945
10970 10962 10955 10954 10952 10949 10951 10952 10949 10947 10944 10944 10948 10951 10955 10960 10960 10957 10956 10957 10960 10961 10961 10962 10963 10964 10965 10966 10967 10967 10967 10967 10967 10967 10967 10967 10967 10966 10965 10965 10965 10965 10965 10965 10966 10967 10967 10966 10963 10961 10962 10963 10963 10963 10962 10961 10960 10959 10959 10959 10958 10958 10957 10956 10955 10955 10955 10955 10954 10954 10954 10953 10953 10953 10954 10954 10953 10952 10951 10950 10947 10946 10944 10941 10940
10948 10941 10939 10944 10946 10946 10948 10949 10948 10945 10943 10943 10945 10947 10949 10952 10952 10949 10949 10952 10955 10956 10957 10958 10958 10960 10961 10962 10962 10963 10963 10963 10963 10963 10964 10964 10963 10962 10962 10962 10962 10962 10962 10962 10963 10964 10965 10964 10962 10960 10959 10959 10959 10959 10958 10957 10957 10956 10956 10956 10956 10955 10955 10954 10953 10953 10953 10952 10951 10951 10951 10950 10949 10950 10950 10950 10949 10948 10946 10945 10943 10941 10939 10936 10934
10934 10934 10937 10941 10944 10943 10943 10944 10943 10942 10939 10939 10941 10942 10944 10946 10946 10945 10946 10948 10950 10952 10953 10954 10955 10956 10957 10957 10958 10959 10959 10960 10960 10960 10960 10959 10959 10959 10959 10959 10959 10959 10960 10960 10961 10962 10962 10961 10960 10959 10957 10956 10955 10953 10952 10952 10952 10952 10953 10953 10953 10952 10952 10952 10951 10950 10950 10949 10949 10948 10948 10947 10947 10948 10947 10946 10945 10943 10940 10939 10937 10936 10934 10930 10927
10933 10935 10936 10936 10937 10936 10936 10936 10936 10937 10936 10935 10935 10937 10939 10940 10940 10941 10942 10943 10945 10947 10948 10949 10950 10951 10952 10953 10954 10954 10955 10955 10955 10955 10955 10954 10954 10954 10955 10955 10956 10956 10957 10957 10958 10958 10957 10956 10955 10954 10953 10952 10950 10949 10949 10949 10948 10948 10948 10948 10949 10949 10949 10949 10948 10948 10947 10947 10946 10946 10945 10945 10946 10945 10945 10944 10940 10935 10933 10933 10932 10931 10929 10925 10922
10931 10931 10931 10930 10930 10929 10929 10929 10929 10931 10932 10931 10930 10931 10933 10934 10935 10936 10937 10937 10939 10941 10943 10944 10945 10946 10948 10948 10948 10949 10949 10950 10950 10950 10950 10949 10949 10950 10951 10952 10952 10953 10953 10954 10953 10952 10952 10951 10949 10948 10947 10946 10946 10946 10947 10947 10945 10944 10944 10944 10945 10945 10945 10946 10946 10945 10945 10945 10943 10943 10943 10943 10943 10943 10944 10941 10933 10927 10928 10930 10929 10927 10925 10923 10921
10925 10925 10925 10925 10924 10923 10923 10923 10924 10926 10928 10927 10926 10926 10927 10928 10930 10931 10932 10933 10934 10936 10939 10940 10940 10940 10941 10942 10942 10942 10943 10945 10945 10944 10944 10945 10945 10945 10947 10947 10948 10949 10949 10949 10948 10947 10946 10944 10943 10943 10943 10943 10943 10943 10943 10943 10942 10941 10940 10940 10940 10941 10941 10942 10943 10943 10943 10943 10941 10939 10940 10941 10940 10940 10940 10934 10925 10922 10924 10927 10928 10925 10920 10918 10918
10919 10919 10919 10919 10919 10918 10918 10918 10918 10920 10922 10922 10922 10922 10922 10923 10924 10926 10927 10928 10929 10931 10933 10934 10934 10934 10934 10935 10935 10936 10938 10940 10939 10937 10938 10939 10939 10940 10941 10942 10943 10944 10944 10944 10943 10941 10940 10939 10939 10940 10940 10940 10940 10939 10938 10938 10938 10937 10936 10935 10936 10937 10938 10938 10939 10940 10941 10940 10938 10935 10936 10937 10936 10933 10932 10925 10919 10918 10918 10918 10921 10920 10915 10912 10912
10915 10914 10914 10914 10914 10914 10913 10914 10914 10914 10915 10916 10916 10917 10917 10917 10919 10920 10922 10923 10924 10926 10927 10927 10928 10928 10928 10929 10930 10932 10933 10934 10933 10932 10932 10933 10933 10934 10935 10935 10936 10938 10939 10939 10938 10936 10935 10935 10935 10936 10935 10935 10935 10934 10934 10933 10933 10932 10932 10931 10931 10933 10933 10934 10934 10935 10935 10935 10934 10930 10929 10930 10929 10927 10925 10919 10914 10914 10911 10907 10909 10911 10909 10908 10907
10909 10909 10908 10908 10908 10908 10908 10908 10909 10909 10909 10910 10911 10911 10912 10912 10913 10914 10916 10917 10918 10920 10921 10922 10923 10923 10923 10924 10925 10927 10929 10929 10929 10928 10927 10927 10927 10928 10929 10929 10930 10932 10933 10933 10932 10931 10931 10930 10930 10931 10930 10930 10929 10929 10929 10928 10927 10927 10927 10926 10926 10927 10927 10928 10928 10928 10926 10926 10926 10924 10922 10923 10922 10921 10920 10913 10907 10908 10904 10899 10901 10903 10902 10901 10900
10902 10902 10902 10902 10901 10901 10902 10902 10903 10904 10904 10905 10905 10906 10906 10907 10908 10909 10910 10911 10912 10914 10916 10917 10917 10918 10918 10919 10920 10921 10922 10923 10924 10923 10922 10922 10922 10923 10923 10923 10924 10926 10927 10927 10926 10925 10924 10925 10925 10924 10924 10923 10923 10923 10923 10922 10922 10922 10921 10920 10920 10920 10920 10921 10920 10919 10918 10918 10919 10917 10915 10915 10914 10913 10912 10906 10901 10901 10897 10894 10896 10897 10894 10893 10893
10895 10895 10896 10896 10896 10896 10896 10897 10897 10898 10899 10900 10900 10900 10901 10902 10903 10904 10905 10906 10908 10910 10911 10911 10912 10912 10913 10914 10915 10916 10916 10917 10918 10918 10917 10917 10917 10917 10917 10917 10918 10919 10920 10920 10920 10919 10918 10919 10919 10918 10917 10917 10917 10917 10917 10916 10916 10915 10914 10914 10913 10913 10913 10913 10912 10912 10911 10910 10910 10909 10908 10907 10906 10904 10903 10899 10895 10894 10892 10889 10891 10890 10887 10886 10885
10889 10889 10890 10892 10892 10892 10892 10892 10893 10893 10893 10894 10895 10895 10896 10897 10898 10899 10900 10902 10904 10906 10908 10907 10906 10906 10907 10909 10910 10910 10911 10912 10912 10912 10911 10911 10912 10912 10912 10912 10913 10913 10913 10914 10913 10912 10912 10913 10913 10912 10911 10911 10911 10911 10911 10910 10909 10908 10907 10906 10906 10905 10905 10905 10905 10904 10903 10901 10900 10899 10898 10898 10897 10896 10895 10892 10888 10886 10885 10884 10884 10882 10880 10878 10877
10885 10884 10885 10886 10887 10887 10888 10888 10888 10888 10889 10889 10890 10890 10891 10892 10893 10894 10895 10896 10899 10901 10903 10903 10901 10900 10900 10902 10903 10904 10905 10906 10905 10905 10905 10905 10905 10906 10906 10906 10907 10907 10907 10907 10907 10905 10905 10906 10907 10906 10905 10904 10904 10904 10904 10903 10903 10902 10901 10899 10898 10898 10897 10897 10897 10895 10894 10893 10892 10891 10890 10889 10889 10888 10887 10885 10882 10878 10876 10876 10875 10875 10874 10871 10869
10880 10880 10880 10881 10881 10882 10883 10883 10884 10884 10884 10885 10885 10886 10887 10888 10888 10889 10890 10891 10892 10894 10896 10897 10896 10894 10894 10896 10896 10897 10898 10898 10898 10898 10898 10899 10899 10899 10899 10899 10899 10900 10900 10900 10899 10898 10896 10897 10900 10900 10898 10897 10897 10896 10895 10895 10894 10894 10893 10892 10891 10890 10889 10889 10888 10887 10886 10885 10884 10883 10882 10881 10880 10879 10878 10877 10876 10873 10870 10867 10866 10865 10864 10863 10861
10874 10874 10875 10875 10876 10877 10878 10878 10879 10880 10880 10881 10881 10882 10883 10884 10884 10884 10885 10886 10887 10888 10889 10890 10891 10890 10890 10890 10890 10890 10891 10891 10891 10891 10891 10892 10892 10892 10892 10892 10892 10893 10893 10892 10892 10891 10888 10888 10890 10891 10890 10890 10889 10889 10887 10886 10885 10884 10884 10883 10882 10881 10880 10879 10879 10879 10878 10876 10875 10874 10873 10872 10870 10870 10869 10868 10867 10865 10863 10861 10858 10855 10853 10851 10850
10869 10869 10870 10870 10871 10872 10873 10873 10874 10875 10876 10876 10877 10878 10879 10879 10880 10880 10881 10881 10882 10883 10884 10884 10885 10885 10885 10885 10884 10884 10884 10884 10884 10884 10885 10884 10884 10884 10884 10884 10884 10884 10884 10884 10884 10883 10882 10880 10880 10880 10881 10880 10880 10879 10877 10876 10876 10875 10875 10874 10872 10871 10870 10870 10869 10869 10868 10868 10866 10865 10863 10862 10861 10860 10859 10857 10856 10854 10853 10852 10850 10847 10844 10841 10839
10866 10865 10866 10866 10867 10868 10868 10869 10869 10870 10871 10872 10872 10873 10874 10875 10875 10876 10876 10876 10877 10877 10877 10878 10878 10878 10878 10878 10878 10878 10878 10878 10878 10878 10878 10877 10877 10877 10876 10876 10876 10875 10875 10875 10875 10875 10875 10873 10872 10871 10871 10870 10869 10868 10867 10867 10867 10866 10866 10865 10863 10862 10862 10861 10860 10859 10859 10858 10858 10856 10855 10853 10851 10850 10848 10847 10845 10844 10842 10840 10839 10837 10834 10832 10829
10864 10864 10863 10863 10863 10864 10863 10864 10865 10866 10867 10867 10867 10867 10868 10869 10869 10869 10870 10870 10870 10871 10871 10871 10871 10871 10871 10871 10871 10871 10872 10872 10872 10871 10871 10871 10871 10870 10870 10869 10868 10867 10867 10867 10867 10867 10867 10866 10865 10864 10864 10863 10862 10860 10859 10860 10860 10859 10857 10856 10855 10855 10855 10853 10852 10851 10850 10850 10849 10847 10846 10844 10842 10840 10838 10836 10835 10833 10832 10830 10828 10826 10824 10821 10820
10862 10861 10861 10860 10860 10860 10859 10860 10861 10862 10863 10862 10863 10863 10863 10863 10863 10863 10863 10864 10864 10864 10864 10864 10865 10865 10864 10865 10865 10865 10865 10865 10866 10865 10864 10864 10864 10863 10862 10862 10861 10861 10860 10860 10860 10860 10860 10859 10859 10858 10857 10856 10855 10854 10854 10854 10853 10852 10850 10849 10848 10847 10847 10845 10843 10842 10842 10841 10840 10838 10837 10835 10833 10831 10829 10827 10826 10824 10823 10821 10819 10817 10815 10813 10811
10857 10857 10857 10857 10857 10857 10856 10856 10857 10857 10858 10858 10858 10859 10858 10858 10858 10858 10858 10858 10859 10859 10859 10860 10859 10859 10859 10859 10859 10859 10858 10858 10859 10859 10858 10857 10857 10856 10855 10854 10854 10853 10853 10852 10852 10852 10852 10851 10851 10851 10850 10849 10848 10848 10847 10847 10846 10844 10842 10842 10840 10839 10839 10837 10834 10833 10833 10833 10831 10830 10828 10827 10825 10823 10821 10819 10818 10816 10815 10813 10812 10810 10808 10806 10804
10852 10853 10853 10853 10854 10854 10853 10853 10853 10853 10853 10854 10854 10853 10853 10853 10853 10853 10853 10854 10854 10854 10854 10855 10855 10854 10854 10854 10854 10853 10853 10852 10852 10851 10850 10850 10849 10848 10847 10847 10846 10845 10844 10844 10843 10843 10843 10843 10843 10843 10842 10841 10841 10840 10839 10839 10838 10835 10834 10834 10832 10831 10831 10829 10825 10824 10826 10826 10823 10821 10819 10818 10816 10815 10813 10811 10810 10808 10807 10806 10804 10802 10801 10799 10797
10848 10849 10849 10849 10850 10850 10850 10850 10849 10848 10848 10849 10849 10848 10848 10848 10847 10848 10848 10849 10849 10850 10849 10850 10850 10849 10849 10848 10848 10847 10847 10846 10846 10845 10844 10843 10842 10841 10840 10839 10838 10838 10837 10836 10836 10835 10835 10835 10835 10835 10834 10833 10833 10832 10831 10831 10830 10827 10826 10826 10825 10824 10824 10820 10816 10817 10819 10818 10815 10812 10811 10809 10808 10806 10805 10803 10802 10800 10799 10797 10796 10794 10793 10792 10790
10844 10844 10845 10846 10846 10846 10846 10846 10846 10845 10845 10845 10845 10845 10844 10843 10843 10844 10844 10844 10844 10845 10845 10844 10844 10844 10843 10843 10843 10842 10841 10840 10840 10839 10839 10838 10837 10836 10835 10833 10832 10832 10831 10830 10830 10829 10828 10827 10827 10827 10826 10825 10825 10825 10824 10823 10822 10820 10819 10818 10817 10818 10816 10811 10809 10810 10809 10807 10807 10805 10803 10801 10799 10798 10796 10795 10793 10792 10791 10789 10787 10786 10785 10784 10782
10841 10840 10840 10841 10842 10842 10841 10841 10841 10841 10840 10840 10841 10841 10841 10840 10840 10840 10840 10840 10840 10840 10840 10839 10839 10838 10837 10837 10837 10836 10835 10835 10835 10834 10834 10833 10832 10831 10829 10828 10827 10826 10825 10825 10824 10823 10822 10821 10820 10820 10819 10817 10817 10817 10816 10815 10814 10812 10811 10810 10809 10810 10807 10802 10801 10803 10801 10797 10797 10797 10794 10792 10790 10788 10787 10786 10784 10783 10783 10781 10779 10777 10776 10775 10774
10837 10837 10837 10837 10838 10838 10838 10837 10837 10836 10836 10835 10835 10835 10836 10836 10836 10835 10835 10835 10835 10834 10834 10834 10833 10833 10832 10832 10831 10831 10830 10830 10829 10829 10828 10827 10826 10825 10824 10822 10821 10820 10819 10818 10817 10816 10815 10814 10813 10812 10811 10810 10809 10809 10808 10807 10806 10804 10803 10801 10800 10801 10798 10793 10791 10793 10792 10789 10788 10786 10784 10783 10781 10779 10778 10776 10774 10773 10773 10772 10770 10768 10767 10765 10764
10833 10834 10833 10833 10834 10834 10833 10833 10833 10832 10832 10832 10831 10831 10831 10831 10830 10830 10830 10830 10830 10829 10828 10828 10828 10828 10828 10827 10826 10825 10824 10824 10823 10823 10822 10822 10821 10820 10819 10817 10815 10814 10812 10811 10810 10809 10808 10806 10805 10804 10803 10801 10800 10799 10798 10797 10796 10794 10793 10791 10790 10790 10789 10785 10782 10782 10782 10780 10779 10776 10774 10772 10770 10769 10768 10766 10764 10762 10762 10762 10760 10759 10757 10755 10753
10829 10829 10829 10829 10830 10830 10829 10829 10829 10829 10828 10828 10827 10827 10826 10826 10825 10825 10825 10825 10824 10823 10823 10823 10823 10822 10822 10821 10820 10820 10819 10818 10817 10817 10817 10816 10815 10815 10813 10811 10808 10807 10806 10805 10803 10802 10801 10800 10798 10797 10795 10793 10792 10790 10789 10788 10787 10785 10783 10781 10780 10780 10779 10777 10773 10771 10770 10770 10769 10767 10764 10762 10760 10759 10758 10756 10754 10751 10750 10750 10749 10748 10747 10745 10743
10825 10825 10825 10825 10825 10825 10825 10825 10825 10824 10824 10824 10823 10823 10822 10821 10821 10820 10820 10820 10819 10817 10817 10818 10817 10816 10816 10815 10815 10814 10814 10813 10812 10812 10811 10811 10809 10808 10806 10804 10801 10800 10799 10798 10796 10795 10794 10792 10791 10789 10788 10786 10784 10782 10780 10779 10778 10776 10774 10773 10771 10770 10769 10767 10764 10761 10759 10758 10758 10756 10754 10751 10750 10749 10747 10745 10743 10741 10739 10738 10737 10736 10735 10734 10732
10821 10820 10821 10821 10821 10821 10821 10821 10820 10820 10820 10819 10819 10818 10818 10817 10817 10816 10816 10816 10815 10813 10812 10812 10812 10811 10811 10810 10809 10809 10808 10807 10806 10805 10804 10803 10802 10801 10799 10796 10794 10793 10791 10789 10788 10787 10786 10784 10783 10781 10779 10777 10775 10773 10771 10769 10768 10767 10765 10764 10762 10760 10758 10757 10755 10752 10748 10747 10746 10745 10743 10741 10739 10738 10736 10734 10732 10731 10729 10726 10725 10724 10724 10723 10722
10816 10816 10816 10816 10816 10817 10817 10816 10816 10816 10815 10814 10814 10813 10813 10813 10813 10813 10813 10813 10811 10809 10808 10807 10806 10806 10805 10804 10804 10803 10802 10800 10799 10798 10797 10795 10794 10793 10791 10789 10787 10785 10783 10781 10780 10778 10777 10776 10774 10772 10770 10768 10766 10764 10762 10760 10757 10756 10755 10754 10752 10749 10747 10745 10744 10741 10738 10736 10734 10732 10731 10730 10728 10726 10724 10723 10721 10720 10718 10716 10714 10712 10710 10710 10710
10812 10812 10811 10811 10812 10812 10812 10811 10811 10811 10810 10809 10809 10808 10808 10808 10808 10809 10809 10808 10806 10804 10803 10802 10801 10800 10799 10798 10797 10796 10795 10793 10792 10791 10789 10787 10786 10785 10783 10781 10779 10777 10775 10773 10771 10770 10769 10766 10764 10762 10760 10758 10756 10754 10752 10749 10746 10744 10743 10742 10740 10737 10735 10733 10731 10728 10726 10724 10723 10721 10719 10717 10715 10713 10711 10710 10709 10707 10706 10705 10704 10701 10698 10697 10697
10807 10807 10807 10807 10807 10807 10806 10806 10806 10806 10805 10804 10804 10803 10803 10802 10802 10802 10802 10801 10799 10798 10797 10795 10794 10793 10792 10791 10789 10788 10787 10785 10784 10783 10781 10779 10778 10776 10774 10772 10770 10768 10766 10763 10761 10760 10759 10756 10752 10750 10748 10747 10745 10742 10739 10737 10734 10733 10732 10730 10727 10724 10722 10720 10718 10716 10713 10711 10709 10708 10707 10705 10702 10700 10698 10697 10695 10694 10693 10692 10691 10690 10688 10686 10685
10802 10802 10801 10801 10801 10801 10801 10800 10800 10800 10800 10799 10798 10798 10797 10796 10796 10795 10794 10793 10792 10791 10790 10787 10786 10785 10784 10783 10781 10780 10779 10777 10775 10775 10773 10770 10768 10766 10764 10761 10759 10758 10756 10753 10750 10749 10748 10744 10741 10738 10736 10734 10733 10730 10727 10724 10722 10720 10719 10717 10714 10712 10710 10708 10706 10704 10702 10699 10696 10694 10693 10692 10690 10687 10685 10683 10681 10680 10680 10678 10677 10676 10675 10673 10672
10796 10795 10795 10795 10795 10795 10795 10795 10795 10794 10793 10793 10792 10792 10791 10790 10789 10788 10787 10785 10784 10784 10782 10780 10778 10777 10776 10775 10773 10772 10770 10768 10766 10765 10764 10762 10759 10756 10753 10751 10748 10746 10744 10742 10739 10737 10736 10733 10729 10727 10724 10721 10720 10718 10715 10712 10709 10707 10705 10703 10701 10699 10697 10695 10692 10690 10689 10688 10684 10681 10679 10677 10675 10674 10672 10670 10668 10666 10665 10664 10663 10661 10660 10659 10658
10790 10789 10789 10789 10789 10789 10789 10789 10788 10788 10787 10786 10785 10785 10784 10783 10782 10781 10780 10778 10777 10777 10776 10773 10771 10768 10767 10767 10766 10764 10761 10759 10757 10755 10754 10751 10748 10745 10742 10739 10737 10734 10732 10728 10726 10724 10723 10720 10718 10715 10712 10709 10707 10705 10703 10700 10698 10695 10693 10690 10688 10686 10684 10682 10679 10676 10674 10673 10671 10670 10667 10665 10661 10658 10656 10656 10655 10653 10651 10649 10648 10646 10645 10645 10643
10783 10783 10783 10783 10782 10782 10782 10782 10782 10781 10781 10779 10778 10777 10777 10776 10775 10773 10772 10770 10769 10769 10767 10766 10763 10761 10757 10756 10755 10754 10752 10750 10747 10745 10743 10740 10737 10734 10731 10728 10726 10723 10720 10716 10713 10711 10710 10708 10705 10703 10700 10698 10695 10692 10690 10688 10686 10683 10681 10678 10676 10673 10670 10668 10666 10663 10660 10658 10656 10654 10653 10652 10649 10645 10641 10639 10639 10639 10637 10634 10633 10632 10630 10629 10627
10777 10777 10776 10776 10776 10775 10775 10775 10775 10774 10774 10772 10771 10770 10769 10768 10767 10765 10764 10761 10760 10759 10758 10756 10754 10752 10749 10746 10744 10743 10742 10740 10737 10734 10732 10729 10725 10722 10720 10717 10715 10712 10709 10705 10702 10699 10697 10695 10693 10691 10688 10686 10682 10679 10677 10675 10672 10669 10666 10664 10662 10659 10656 10654 10651 10649 10646 10643 10640 10638 10636 10635 10634 10631 10627 10623 10621 10621 10621 10619 10617 10616 10616 10614 10611
10771 10771 10770 10770 10769 10769 10769 10769 10768 10767 10767 10766 10764 10762 10761 10760 10759 10757 10755 10753 10751 10750 10749 10747 10745 10742 10740 10737 10734 10732 10730 10729 10727 10724 10721 10717 10714 10711 10709 10706 10703 10700 10697 10695 10691 10688 10685 10682 10680 10678 10675 10671 10668 10666 10664 10661 10657 10654 10651 10648 10646 10643 10641 10638 10636 10633 10630 10628 10624 10621 10619 10617 10616 10614 10613 10609 10604 10602 10603 10603 10600 10599 10598 10598 10596
10766 10765 10764 10763 10763 10762 10762 10761 10761 10760 10759 10758 10756 10754 10753 10752 10751 10748 10746 10744 10742 10741 10739 10737 10735 10733 10730 10728 10725 10723 10720 10718 10716 10714 10710 10706 10703 10700 10697 10694 10691 10689 10686 10683 10679 10675 10672 10669 10666 10664 10660 10655 10652 10652 10649 10644 10641 10639 10636 10632 10630 10627 10624 10621 10619 10616 10613 10611 10608 10605 10602 10599 10597 10596 10595 10593 10589 10586 10586 10585 10584 10582 10581 10581 10581
10760 10759 10758 10757 10756 10755 10755 10754 10754 10753 10752 10750 10749 10746 10745 10744 10742 10739 10737 10735 10734 10731 10729 10727 10726 10724 10721 10718 10715 10713 10711 10708 10705 10703 10700 10696 10692 10688 10685 10682 10678 10675 10673 10670 10664 10660 10656 10653 10651 10649 10645 10638 10635 10635 10632 10627 10624 10623 10620 10616 10613 10610 10607 10604 10601 10598 10596 10593 10591 10588 10585 10582 10580 10578 10576 10575 10573 10571 10570 10569 10567 10565 10564 10564 10564
10754 10753 10752 10751 10749 10748 10747 10746 10746 10745 10744 10743 10741 10738 10737 10736 10734 10731 10729 10727 10725 10722 10719 10718 10716 10714 10711 10708 10705 10703 10700 10697 10694 10692 10689 10684 10679 10675 10672 10669 10664 10660 10658 10654 10650 10645 10641 10637 10635 10634 10630 10622 10617 10617 10615 10611 10608 10606 10603 10599 10596 10593 10590 10587 10584 10581 10578 10575 10573 10571 10568 10566 10563 10561 10559 10557 10555 10553 10552 10552 10552 10550 10548 10547 10546
10747 10746 10745 10744 10742 10741 10740 10739 10738 10737 10736 10735 10732 10730 10729 10728 10726 10723 10721 10719 10716 10713 10710 10708 10705 10702 10700 10696 10693 10690 10687 10685 10682 10679 10676 10671 10666 10661 10658 10655 10650 10646 10643 10639 10635 10631 10627 10622 10619 10618 10615 10606 10599 10597 10597 10594 10590 10587 10583 10580 10577 10574 10571 10569 10566 10563 10560 10558 10555 10553 10551 10549 10546 10544 10542 10539 10537 10536 10535 10534 10534 10534 10533 10531 10530
10740 10739 10738 10737 10735 10734 10732 10731 10730 10729 10728 10726 10724 10722 10720 10718 10716 10714 10711 10709 10707 10704 10701 10698 10695 10692 10688 10685 10681 10676 10673 10670 10667 10664 10661 10657 10651 10646 10643 10640 10636 10631 10628 10624 10619 10615 10611 10607 10604 10602 10598 10590 10582 10579 10578 10575 10571 10568 10565 10561 10558 10555 10552 10550 10548 10545 10543 10540 10538 10535 10533 10531 10529 10526 10525 10522 10520 10519 10517 10517 10517 10516 10516 10516 10515
10733 10732 10730 10729 10727 10726 10724 10723 10721 10720 10718 10717 10715 10713 10710 10708 10706 10704 10701 10699 10696 10693 10690 10687 10684 10680 10676 10673 10669 10664 10659 10654 10651 10649 10646 10642 10636 10631 10627 10624 10620 10615 10611 10607 10602 10598 10594 10590 10586 10584 10581 10573 10565 10561 10559 10556 10552 10549 10546 10543 10540 10537 10534 10532 10529 10527 10525 10523 10520 10518 10515 10513 10511 10509 10507 10506 10503 10502 10501 10500 10500 10500 10499 10500 10499